EW1895 Weather Reports


time (UTC)temp
F
wind
direction
speed
knots
gust
knots
rain 1hr
in
rain 24hr
in
rain mn
in
humidity
%
barometer
mb
20260510130059 68 237 0.0 0.0 0.00 0.00 0.00 72 1014.5
20260510124600 64 237 0.0 0.0 0.00 0.00 0.00 82 1014.3
20260510121557 59 237 0.0 0.0 0.00 0.00 0.00 93 1014.0
20260510120052 57 237 0.0 0.0 0.00 0.00 0.00 96 1013.7
20260510114552 55 237 0.0 0.0 0.00 0.00 0.00 96 1013.6
20260510111551 54 237 0.0 0.0 0.00 0.00 0.00 96 1013.4
20260510110051 53 237 0.0 0.0 0.00 0.00 0.00 95 1013.2
20260510104556 53 237 0.0 0.0 0.00 0.00 0.00 95 1012.9
20260510101548 53 237 0.0 0.0 0.00 0.00 0.00 94 1012.6
20260510100050 53 237 0.0 0.0 0.00 0.00 0.00 93 1012.6
20260510094537 54 237 0.0 0.0 0.00 0.00 0.00 93 1012.4
20260510091536 55 237 0.0 0.0 0.00 0.00 0.00 93 1012.1
20260510090031 55 237 0.0 0.0 0.00 0.00 0.00 93 1012.0
20260510084543 56 237 0.0 0.0 0.00 0.00 0.00 92 1011.8
20260510081531 56 237 0.0 0.0 0.00 0.00 0.00 92 1011.6
20260510080022 57 237 0.0 0.0 0.00 0.00 0.00 92 1011.4
20260510074520 57 237 0.0 0.0 0.00 0.00 0.00 91 1011.5
20260510071517 58 237 0.0 0.0 0.00 0.00 0.00 90 1011.6
20260510070016 58 237 0.0 0.0 0.00 0.00 0.00 89 1011.5
20260510064514 59 237 0.0 0.0 0.00 0.00 0.00 88 1011.4
20260510061513 60 237 0.0 0.0 0.00 0.00 0.00 87 1011.3
20260510060009 60 237 0.0 0.0 0.00 0.00 0.00 85 1011.4
20260510054506 61 237 0.0 0.0 0.00 0.00 0.00 85 1011.4
20260510051504 61 237 0.0 0.0 0.00 0.00 0.00 83 1011.4
20260510050002 62 237 0.0 0.0 0.00 0.00 0.00 82 1011.3
20260510044601 62 237 0.0 0.0 0.00 0.00 0.00 82 1011.3
20260510041556 62 237 0.0 0.0 0.00 0.00 0.00 80 1011.2
20260510040104 62 237 0.0 0.0 0.00 0.00 0.00 79 1011.2
20260510034559 63 237 0.0 0.0 0.00 0.00 0.00 79 1011.1
20260510031600 63 244 0.0 0.0 0.00 0.00 0.00 78 1011.0
20260510030048 62 244 0.0 0.0 0.00 0.00 0.00 77 1010.8
20260510024546 62 244 0.0 0.0 0.00 0.00 0.00 77 1010.7
20260510021543 63 244 0.0 0.0 0.00 0.00 0.00 76 1010.6
20260510020040 63 244 0.0 0.0 0.00 0.00 0.00 75 1010.2
20260510014538 63 244 0.0 0.0 0.00 0.00 0.00 73 1010.0
20260510011534 64 244 0.0 0.0 0.00 0.00 0.00 71 1009.7
20260510010029 65 244 0.0 0.0 0.00 0.00 0.00 68 1009.6
20260510004526 66 244 0.0 0.0 0.00 0.00 0.00 65 1009.4
20260510001520 69 244 0.0 0.0 0.00 0.00 0.00 61 1009.1
20260510000015 70 244 0.0 0.0 0.00 0.00 0.00 58 1008.9
20260509234517 71 244 0.0 0.0 0.00 0.00 0.00 58 1008.7
20260509231506 72 153 0.0 0.9 0.00 0.00 0.00 56 1008.8
20260509230003 73 190 0.0 0.0 0.00 0.00 0.00 54 1008.8
20260509224600 74 190 0.0 0.0 0.00 0.00 0.00 51 1008.7
20260509224504 74 190 0.0 0.0 0.00 0.00 0.00 51 1008.8
20260509223158 75 190 0.0 0.0 0.00 0.00 0.00 50 1008.7
20260509221555 75 185 0.0 0.0 0.00 0.00 0.00 49 1008.8
20260509220056 76 162 0.0 2.6 0.00 0.00 0.00 47 1008.7
20260509214555 76 107 0.0 1.7 0.00 0.00 0.00 46 1008.6
20260509213154 77 271 0.0 0.0 0.00 0.00 0.00 46 1008.6
20260509211554 78 272 0.0 2.6 0.00 0.00 0.00 44 1008.5
20260509210105 79 278 0.0 1.7 0.00 0.00 0.00 43 1008.4
20260509204557 78 17 0.0 2.6 0.00 0.00 0.00 43 1008.4
20260509203152 79 240 0.0 1.7 0.00 0.00 0.00 43 1008.3
20260509201552 80 292 0.9 6.1 0.00 0.00 0.00 41 1008.2
20260509200105 80 319 0.0 2.6 0.00 0.00 0.00 40 1008.4
20260509194549 78 209 0.0 4.3 0.00 0.00 0.00 43 1008.5
20260509193147 78 178 0.0 2.6 0.00 0.00 0.00 47 1008.7
20260509191546 77 130 0.0 1.7 0.00 0.00 0.00 47 1008.9
20260509190053 78 36 0.0 0.9 0.00 0.00 0.00 47 1009.3
20260509184607 79 360 0.0 3.5 0.00 0.00 0.00 43 1009.4
20260509183141 79 214 0.0 7.0 0.00 0.00 0.00 45 1009.6
20260509181544 77 306 0.9 3.5 0.00 0.00 0.00 50 1009.8
20260509180033 77 187 0.9 4.3 0.00 0.00 0.00 48 1010.2
20260509174536 76 108 0.0 3.5 0.00 0.00 0.00 48 1010.2
20260509173132 78 125 1.7 7.0 0.00 0.00 0.00 47 1010.4
20260509171533 77 256 0.0 6.1 0.00 0.00 0.00 47 1010.2
20260509170030 77 316 0.0 5.2 0.00 0.00 0.00 47 1010.5
20260509164526 76 309 0.9 4.3 0.00 0.00 0.00 50 1010.7
20260509163124 73 273 0.0 4.3 0.00 0.00 0.00 52 1010.9
20260509161521 74 267 0.0 6.1 0.00 0.00 0.00 52 1010.8
20260509160019 72 80 0.0 4.3 0.00 0.00 0.00 54 1011.0
20260509154515 72 284 0.0 6.1 0.00 0.00 0.00 53 1011.2
20260509153113 71 248 0.0 6.1 0.00 0.00 0.00 58 1011.5
20260509151511 69 202 0.0 4.3 0.00 0.00 0.00 60 1011.6
20260509150009 68 270 0.0 3.5 0.00 0.00 0.00 63 1011.9
20260509144507 67 274 0.0 4.3 0.00 0.00 0.00 66 1012.0
20260509143105 65 154 0.0 6.1 0.00 0.00 0.00 69 1012.5
20260509141503 65 210 0.0 1.7 0.00 0.00 0.00 70 1012.6
20260509140002 64 178 0.0 4.3 0.00 0.00 0.00 72 1012.7
20260509134502 63 140 0.0 0.0 0.00 0.00 0.00 74 1012.8
20260509133102 61 126 0.0 3.5 0.00 0.00 0.00 75 1013.1
20260509131503 61 265 0.0 0.0 0.00 0.00 0.00 76 1013.1